Miscellaneous Local Product
Issued by NWS Hastings, NE

Home | Current Version | Previous Version | Graphics & Text | Print | Product List | Glossary On
Versions: 1 2 3 4 5 6 7 8 9 10 11 12 13 14 15 16 17 18 19 20 21 22 23 24 25 26 27 28 29 30 31 32 33 34 35 36 37 38 39 40 41 42 43 44 45 46 47 48 49 50
889
AXUS43 KGID 240402
MISGRI

GID CWA HOURLY WEATHER ROUNDUP
NATIONAL WEATHER SERVICE HASTINGS NE
1100 PM CDT TUE MAY 23 2017

NOTE: "FAIR" INDICATES FEW OR NO CLOUDS BELOW 12,000 FEET WITH NO
SIGNIFICANT WEATHER AND/OR OBSTRUCTIONS TO VISIBILITY.

...SOUTH CENTRAL NEBRASKA...

CITY           SKY/WX    TMP DP  RH WIND       PRES   REMARKS
GRAND ISLAND   CLOUDY    50  43  77 N14       29.93S
HASTINGS       CLOUDY    51  42  71 N14       29.94S
KEARNEY        CLEAR     48  37  66 N13       29.95S
ORD            CLOUDY    50  40  68 N15       29.95R
YORK           MOCLDY    50  45  81 NW14      29.90S
AURORA         CLOUDY    50  44  79 N16       29.92S
LEXINGTON      CLEAR     44  39  83 NW6       29.97S
HOLDREGE       MOCLDY    47  40  78 NW5       29.96S
HEBRON         CLOUDY    53  44  72 N13       29.90S

...NEBRASKA PANHANDLE...

CITY           SKY/WX    TMP DP  RH WIND       PRES   REMARKS
CHADRON        CLEAR     45  38  76 CALM      30.02S
ALLIANCE       CLEAR     42  36  79 NE6       30.02F
SCOTTSBLUFF    CLOUDY    47  38  71 CALM      30.04S
SIDNEY         CLEAR     41  35  79 N6        30.05S

...WESTERN AND NORTH CENTRAL NEBRASKA...

CITY           SKY/WX    TMP DP  RH WIND       PRES   REMARKS
VALENTINE      CLEAR     40  34  79 NW5       30.00S
AINSWORTH      CLOUDY    49  42  78 NW9       29.99S
ONEILL         CLOUDY    50  43  77 NW9       29.96S
BROKEN BOW     CLOUDY    50  42  74 N14       29.97R
IMPERIAL       CLEAR     43  37  79 N7        30.02R
NORTH PLATTE   CLEAR     48  38  68 N12       30.00R
MCCOOK         CLEAR     46  37  71 N10       29.99S

...EASTERN NEBRASKA...

CITY           SKY/WX    TMP DP  RH WIND       PRES   REMARKS
NORFOLK        MOCLDY    49  44  83 NW20G25   29.89S
SO SIOUX CITY  CLOUDY    51  48  89 N10       29.86S
TEKAMAH        MOCLDY    51  47  86 NW14      29.84S
ALBION         CLOUDY    51  44  79 N8        29.92S
OMAHA EPPLEY   CLOUDY    50  45  83 NW10      29.83S
OFFUTT AFB     CLOUDY    51  47  88 NW8       29.82S
MILLARD        CLOUDY    54  49  82 NW9       29.84S
LINCOLN        CLOUDY    54  46  74 NW16G23   29.88S
NEBRASKA CITY  CLOUDY    53  47  80 NW10      29.83S
BEATRICE       CLOUDY    52  46  78 N13       29.87S
FALLS CITY     CLOUDY    51  47  86 NW10      29.82S

...NORTHERN KANSAS...

CITY           SKY/WX    TMP DP  RH WIND       PRES   REMARKS
GOODLAND       CLEAR     43  37  79 N7        30.02R
HILL CITY      CLEAR     44  39  82 NW5       29.98R
NORTON         CLEAR     43  36  75 NW8       29.97S
PHILLIPSBURG   MOCLDY    48  43  81 NW6       29.97R
SMITH CENTER   MOCLDY    48  41  76 NW6       29.95R
HAYS           CLEAR     47  40  76 NW6       29.97R
RUSSELL        CLEAR     50  42  74 N9        29.94R
CONCORDIA      CLOUDY    52  45  77 NW8       29.90S
SALINA         CLOUDY    56  44  64 NW9       29.91S
TOPEKA         CLOUDY    54  48  80 NW9       29.83S



USA.gov is the U.S. government's official web portal to all federal, state and local government web resources and services.